| time (UTC) | temp F | wind direction | speed knots | gust knots | rain 1hr in | rain 24hr in | rain mn in | humidity % | barometer mb |
| 20260831160345 | 83 | 97 | 2.6 | 10.4 | 0.00 | 0.00 | 0.00 | 54 | 1020.4 |
| 20260831155341 | 84 | 162 | 3.5 | 8.7 | 0.00 | 0.00 | 0.00 | 55 | 1020.6 |
| 20260831154352 | 84 | 207 | 1.7 | 12.2 | 0.00 | 0.00 | 0.00 | 55 | 1020.6 |
| 20260831153346 | 84 | 260 | 2.6 | 13.9 | 0.00 | 0.00 | 0.00 | 56 | 1020.7 |
| 20260831152340 | 84 | 233 | 3.5 | 8.7 | 0.00 | 0.00 | 0.00 | 58 | 1020.5 |
| 20260831151401 | 84 | 146 | 3.5 | 7.8 | 0.00 | 0.00 | 0.00 | 59 | 1020.5 |
| 20260831150356 | 85 | 220 | 3.5 | 7.8 | 0.00 | 0.00 | 0.00 | 57 | 1020.5 |
| 20260831145345 | 85 | 178 | 2.6 | 10.4 | 0.00 | 0.00 | 0.00 | 58 | 1020.5 |
| 20260831144344 | 85 | 249 | 5.2 | 10.4 | 0.00 | 0.00 | 0.00 | 57 | 1020.4 |
| 20260831143341 | 85 | 198 | 3.5 | 8.7 | 0.00 | 0.00 | 0.00 | 57 | 1020.4 |
| 20260831142341 | 84 | 212 | 4.3 | 13.9 | 0.00 | 0.00 | 0.00 | 58 | 1020.5 |
| 20260831141339 | 85 | 213 | 7.8 | 12.2 | 0.00 | 0.00 | 0.00 | 57 | 1020.4 |
| 20260831140400 | 84 | 235 | 3.5 | 8.7 | 0.00 | 0.00 | 0.00 | 59 | 1020.5 |
| 20260831135350 | 84 | 145 | 1.7 | 8.7 | 0.00 | 0.00 | 0.00 | 59 | 1020.6 |
| 20260831134348 | 84 | 97 | 1.7 | 11.3 | 0.00 | 0.00 | 0.00 | 59 | 1020.5 |
| 20260831133346 | 84 | 156 | 6.1 | 13.0 | 0.00 | 0.00 | 0.00 | 59 | 1020.6 |
| 20260831132340 | 84 | 126 | 5.2 | 11.3 | 0.00 | 0.00 | 0.00 | 59 | 1020.5 |
| 20260831131349 | 84 | 135 | 4.3 | 12.2 | 0.00 | 0.00 | 0.00 | 60 | 1020.5 |
| 20260831130347 | 84 | 113 | 3.5 | 12.2 | 0.00 | 0.00 | 0.00 | 59 | 1020.5 |
| 20260831125404 | 84 | 165 | 5.2 | 12.2 | 0.00 | 0.00 | 0.00 | 60 | 1020.6 |
| 20260831124340 | 84 | 129 | 5.2 | 13.9 | 0.00 | 0.00 | 0.00 | 58 | 1020.7 |
| 20260831123400 | 84 | 134 | 7.0 | 13.0 | 0.00 | 0.00 | 0.00 | 57 | 1020.8 |
| 20260831122355 | 84 | 130 | 6.1 | 13.0 | 0.00 | 0.00 | 0.00 | 56 | 1020.7 |
| 20260831121353 | 84 | 190 | 7.0 | 13.0 | 0.00 | 0.00 | 0.00 | 55 | 1020.7 |
| 20260831120341 | 85 | 92 | 7.8 | 12.2 | 0.00 | 0.00 | 0.00 | 53 | 1020.8 |
| 20260831115355 | 85 | 71 | 4.3 | 12.2 | 0.00 | 0.00 | 0.00 | 53 | 1020.8 |
| 20260831114348 | 85 | 142 | 7.0 | 12.2 | 0.00 | 0.00 | 0.00 | 52 | 1020.8 |
| 20260831113349 | 85 | 168 | 5.2 | 12.2 | 0.00 | 0.00 | 0.00 | 51 | 1020.9 |
| 20260831112400 | 85 | 125 | 4.3 | 10.4 | 0.00 | 0.00 | 0.00 | 52 | 1020.9 |
| 20260831111341 | 85 | 121 | 3.5 | 12.2 | 0.00 | 0.00 | 0.00 | 51 | 1020.8 |
| 20260831110344 | 85 | 110 | 3.5 | 11.3 | 0.00 | 0.00 | 0.00 | 50 | 1021.0 |
| 20260831105353 | 86 | 118 | 4.3 | 9.6 | 0.00 | 0.00 | 0.00 | 48 | 1020.9 |
| 20260831104351 | 85 | 129 | 4.3 | 7.0 | 0.00 | 0.00 | 0.00 | 49 | 1020.9 |
| 20260831103342 | 85 | 201 | 4.3 | 7.0 | 0.00 | 0.00 | 0.00 | 50 | 1021.0 |
| 20260831102353 | 84 | 245 | 1.7 | 6.1 | 0.00 | 0.00 | 0.00 | 51 | 1021.1 |
| 20260831101348 | 84 | 333 | 1.7 | 5.2 | 0.00 | 0.00 | 0.00 | 52 | 1021.0 |
| 20260831100347 | 83 | 214 | 2.6 | 4.3 | 0.00 | 0.00 | 0.00 | 54 | 1021.1 |
| 20260831095339 | 83 | 262 | 5.2 | 7.8 | 0.00 | 0.00 | 0.00 | 54 | 1021.2 |
| 20260831094355 | 82 | 202 | 1.7 | 5.2 | 0.00 | 0.00 | 0.00 | 55 | 1021.2 |
| 20260831093351 | 82 | 226 | 1.7 | 5.2 | 0.00 | 0.00 | 0.00 | 56 | 1021.2 |
| 20260831092344 | 81 | 327 | 3.5 | 5.2 | 0.00 | 0.00 | 0.00 | 57 | 1021.3 |
| 20260831091349 | 81 | 282 | 0.9 | 4.3 | 0.00 | 0.00 | 0.00 | 58 | 1021.2 |
| 20260831090351 | 81 | 24 | 1.7 | 3.5 | 0.00 | 0.00 | 0.00 | 57 | 1021.4 |
| 20260831085349 | 80 | 32 | 0.0 | 3.5 | 0.00 | 0.00 | 0.00 | 56 | 1021.2 |
| 20260831084344 | 80 | 58 | 1.7 | 3.5 | 0.00 | 0.00 | 0.00 | 52 | 1021.1 |
| 20260831083341 | 79 | 48 | 0.9 | 3.5 | 0.00 | 0.00 | 0.00 | 50 | 1021.1 |
| 20260831082354 | 78 | 0 | 0.9 | 3.5 | 0.00 | 0.00 | 0.00 | 50 | 1021.0 |
| 20260831081337 | 76 | 0 | 0.9 | 2.6 | 0.00 | 0.00 | 0.00 | 51 | 1021.0 |
| 20260831080340 | 75 | 0 | 1.7 | 3.5 | 0.00 | 0.00 | 0.00 | 52 | 1021.0 |
| 20260831075359 | 74 | 359 | 0.9 | 3.5 | 0.00 | 0.00 | 0.00 | 53 | 1021.0 |
| 20260831074342 | 74 | 359 | 1.7 | 3.5 | 0.00 | 0.00 | 0.00 | 54 | 1020.9 |
| 20260831073346 | 74 | 359 | 2.6 | 3.5 | 0.00 | 0.00 | 0.00 | 55 | 1020.7 |
| 20260831072345 | 72 | 0 | 0.9 | 3.5 | 0.00 | 0.00 | 0.00 | 57 | 1020.7 |
| 20260831071352 | 72 | 247 | 1.7 | 3.5 | 0.00 | 0.00 | 0.00 | 59 | 1020.7 |
| 20260831070354 | 71 | 235 | 1.7 | 2.6 | 0.00 | 0.00 | 0.00 | 61 | 1020.7 |
| 20260831065352 | 71 | 234 | 0.0 | 0.9 | 0.00 | 0.00 | 0.00 | 63 | 1020.5 |
| 20260831064358 | 70 | 234 | 0.0 | 0.9 | 0.00 | 0.00 | 0.00 | 63 | 1020.5 |
| 20260831063338 | 70 | 234 | 0.0 | 1.7 | 0.00 | 0.00 | 0.00 | 63 | 1020.4 |
| 20260831062354 | 70 | 234 | 0.0 | 1.7 | 0.00 | 0.00 | 0.00 | 64 | 1020.4 |
| 20260831061356 | 69 | 234 | 0.9 | 1.7 | 0.00 | 0.00 | 0.00 | 65 | 1020.1 |
| 20260831060338 | 68 | 234 | 0.9 | 2.6 | 0.00 | 0.00 | 0.00 | 65 | 1019.8 |
| 20260831055356 | 68 | 234 | 0.0 | 1.7 | 0.00 | 0.00 | 0.00 | 64 | 1019.8 |
| 20260831054337 | 67 | 234 | 0.0 | 1.7 | 0.00 | 0.00 | 0.00 | 65 | 1019.8 |
| 20260831053338 | 67 | 234 | 0.9 | 2.6 | 0.00 | 0.00 | 0.00 | 64 | 1019.6 |
| 20260831052354 | 67 | 233 | 0.9 | 1.7 | 0.00 | 0.00 | 0.00 | 63 | 1019.4 |
| 20260831051339 | 67 | 233 | 0.0 | 2.6 | 0.00 | 0.00 | 0.00 | 64 | 1019.4 |
| 20260831050342 | 68 | 233 | 1.7 | 2.6 | 0.00 | 0.00 | 0.00 | 64 | 1019.2 |
| 20260831045340 | 68 | 233 | 0.0 | 0.0 | 0.00 | 0.00 | 0.00 | 65 | 1019.3 |
| 20260831044348 | 68 | 233 | 0.0 | 0.9 | 0.00 | 0.00 | 0.00 | 65 | 1019.3 |
| 20260831043336 | 68 | 233 | 0.9 | 1.7 | 0.00 | 0.00 | 0.00 | 64 | 1019.3 |
| 20260831042352 | 69 | 233 | 0.9 | 1.7 | 0.00 | 0.00 | 0.00 | 62 | 1019.2 |
| 20260831040338 | 68 | 235 | 0.9 | 2.6 | 0.00 | 0.00 | 0.00 | 60 | 1019.2 |
| 20260831035358 | 68 | 233 | 0.9 | 2.6 | 0.00 | 0.00 | 0.00 | 59 | 1019.3 |
| 20260831034356 | 69 | 232 | 0.9 | 2.6 | 0.00 | 0.00 | 0.00 | 61 | 1019.2 |
| 20260831033336 | 68 | 232 | 0.0 | 3.5 | 0.00 | 0.00 | 0.00 | 58 | 1019.3 |
| 20260831032337 | 69 | 232 | 1.7 | 3.5 | 0.00 | 0.00 | 0.00 | 59 | 1019.2 |
| 20260831031356 | 69 | 232 | 0.9 | 3.5 | 0.00 | 0.00 | 0.00 | 59 | 1019.3 |
| 20260831030354 | 69 | 232 | 0.9 | 2.6 | 0.00 | 0.00 | 0.00 | 59 | 1019.2 |
| 20260831025352 | 69 | 231 | 1.7 | 2.6 | 0.00 | 0.00 | 0.00 | 57 | 1019.2 |
| 20260831024352 | 69 | 231 | 0.9 | 2.6 | 0.00 | 0.00 | 0.00 | 57 | 1019.2 |
| 20260831023351 | 70 | 231 | 0.9 | 2.6 | 0.00 | 0.00 | 0.00 | 57 | 1019.1 |
| 20260831022345 | 70 | 230 | 1.7 | 3.5 | 0.00 | 0.00 | 0.00 | 56 | 1019.1 |
| 20260831021349 | 70 | 230 | 0.9 | 2.6 | 0.00 | 0.00 | 0.00 | 57 | 1019.1 |
| 20260831020356 | 70 | 230 | 0.0 | 0.0 | 0.00 | 0.00 | 0.00 | 58 | 1019.0 |
| 20260831015353 | 70 | 230 | 0.0 | 0.0 | 0.00 | 0.00 | 0.00 | 59 | 1019.0 |
| 20260831014340 | 71 | 230 | 0.0 | 0.0 | 0.00 | 0.00 | 0.00 | 59 | 1018.9 |
| 20260831013341 | 71 | 230 | 0.0 | 0.0 | 0.00 | 0.00 | 0.00 | 59 | 1019.0 |
| 20260831012357 | 72 | 230 | 0.0 | 0.0 | 0.00 | 0.00 | 0.00 | 58 | 1019.0 |
| 20260831011338 | 72 | 230 | 0.0 | 0.0 | 0.00 | 0.00 | 0.00 | 58 | 1018.9 |
| 20260831010341 | 72 | 230 | 0.0 | 0.9 | 0.00 | 0.00 | 0.00 | 57 | 1018.9 |
| 20260831005342 | 72 | 230 | 0.0 | 0.9 | 0.00 | 0.00 | 0.00 | 56 | 1018.9 |
| 20260831004343 | 72 | 230 | 0.0 | 1.7 | 0.00 | 0.00 | 0.00 | 55 | 1018.9 |
| 20260831003342 | 72 | 230 | 0.9 | 3.5 | 0.00 | 0.00 | 0.00 | 55 | 1018.8 |
| 20260831002353 | 72 | 230 | 0.9 | 3.5 | 0.00 | 0.00 | 0.00 | 56 | 1018.8 |
| 20260831001337 | 73 | 230 | 0.9 | 2.6 | 0.00 | 0.00 | 0.00 | 56 | 1018.6 |
| 20260831000340 | 73 | 230 | 0.0 | 0.0 | 0.00 | 0.00 | 0.00 | 56 | 1018.7 |
| 20260830235359 | 73 | 229 | 0.0 | 0.0 | 0.00 | 0.00 | 0.00 | 55 | 1018.8 |
| 20260830234356 | 74 | 229 | 0.0 | 0.9 | 0.00 | 0.00 | 0.00 | 55 | 1018.7 |
| 20260830233356 | 74 | 229 | 0.0 | 0.9 | 0.00 | 0.00 | 0.00 | 55 | 1018.8 |
| 20260830232348 | 74 | 229 | 0.0 | 0.9 | 0.00 | 0.00 | 0.00 | 54 | 1018.8 |
| 20260830231351 | 74 | 229 | 0.9 | 1.7 | 0.00 | 0.00 | 0.00 | 54 | 1018.8 |
| 20260830230349 | 74 | 229 | 1.7 | 2.6 | 0.00 | 0.00 | 0.00 | 53 | 1018.9 |
| 20260830225344 | 75 | 229 | 0.9 | 1.7 | 0.00 | 0.00 | 0.00 | 52 | 1018.8 |
| 20260830224348 | 75 | 229 | 0.9 | 1.7 | 0.00 | 0.00 | 0.00 | 51 | 1018.8 |
| 20260830223348 | 75 | 229 | 0.0 | 2.6 | 0.00 | 0.00 | 0.00 | 50 | 1018.8 |
| 20260830222345 | 75 | 229 | 0.9 | 2.6 | 0.00 | 0.00 | 0.00 | 50 | 1018.8 |
| 20260830221343 | 75 | 229 | 0.9 | 2.6 | 0.00 | 0.00 | 0.00 | 50 | 1018.7 |
| 20260830220344 | 76 | 229 | 0.9 | 1.7 | 0.00 | 0.00 | 0.00 | 49 | 1018.7 |
| 20260830215339 | 76 | 229 | 0.0 | 1.7 | 0.00 | 0.00 | 0.00 | 49 | 1018.7 |
| 20260830214338 | 76 | 229 | 0.9 | 2.6 | 0.00 | 0.00 | 0.00 | 49 | 1018.6 |
| 20260830213337 | 77 | 231 | 0.0 | 0.9 | 0.00 | 0.00 | 0.00 | 50 | 1018.6 |
| 20260830212354 | 77 | 231 | 0.0 | 1.7 | 0.00 | 0.00 | 0.00 | 49 | 1018.5 |
| 20260830211338 | 77 | 231 | 0.0 | 1.7 | 0.00 | 0.00 | 0.00 | 50 | 1018.4 |
| 20260830210339 | 78 | 231 | 1.7 | 1.7 | 0.00 | 0.00 | 0.00 | 51 | 1018.6 |
| 20260830205358 | 78 | 231 | 1.7 | 2.6 | 0.00 | 0.00 | 0.00 | 50 | 1018.5 |
| 20260830204356 | 78 | 231 | 0.9 | 0.9 | 0.00 | 0.00 | 0.00 | 48 | 1018.4 |
| 20260830203340 | 79 | 231 | 0.0 | 3.5 | 0.00 | 0.00 | 0.00 | 50 | 1018.4 |
| 20260830202336 | 79 | 231 | 1.7 | 4.3 | 0.00 | 0.00 | 0.00 | 53 | 1018.3 |
| 20260830201336 | 80 | 209 | 1.7 | 2.6 | 0.00 | 0.00 | 0.00 | 51 | 1018.4 |
| 20260830200342 | 80 | 209 | 1.7 | 3.5 | 0.00 | 0.00 | 0.00 | 50 | 1018.3 |
| 20260830195342 | 81 | 208 | 2.6 | 3.5 | 0.00 | 0.00 | 0.00 | 48 | 1018.1 |
| 20260830194345 | 81 | 206 | 2.6 | 3.5 | 0.00 | 0.00 | 0.00 | 45 | 1018.2 |
| 20260830193348 | 82 | 205 | 1.7 | 3.5 | 0.00 | 0.00 | 0.00 | 41 | 1018.1 |
| 20260830192339 | 82 | 205 | 0.9 | 2.6 | 0.00 | 0.00 | 0.00 | 39 | 1017.9 |
| 20260830191339 | 82 | 205 | 0.0 | 2.6 | 0.00 | 0.00 | 0.00 | 38 | 1017.8 |
| 20260830190339 | 83 | 204 | 1.7 | 2.6 | 0.00 | 0.00 | 0.00 | 38 | 1017.6 |
| 20260830185340 | 83 | 204 | 1.7 | 3.5 | 0.00 | 0.00 | 0.00 | 37 | 1017.5 |
| 20260830184339 | 83 | 223 | 1.7 | 6.1 | 0.00 | 0.00 | 0.00 | 37 | 1017.4 |
| 20260830183341 | 84 | 221 | 1.7 | 4.3 | 0.00 | 0.00 | 0.00 | 36 | 1017.4 |
| 20260830182354 | 84 | 218 | 2.6 | 5.2 | 0.00 | 0.00 | 0.00 | 35 | 1017.3 |
| 20260830181353 | 85 | 242 | 1.7 | 8.7 | 0.00 | 0.00 | 0.00 | 35 | 1017.4 |
| 20260830180353 | 85 | 213 | 4.3 | 7.8 | 0.00 | 0.00 | 0.00 | 33 | 1017.3 |
| 20260830175343 | 86 | 212 | 1.7 | 7.0 | 0.00 | 0.00 | 0.00 | 33 | 1017.3 |
| 20260830174356 | 86 | 248 | 5.2 | 8.7 | 0.00 | 0.00 | 0.00 | 34 | 1017.2 |
| 20260830173354 | 87 | 209 | 2.6 | 7.8 | 0.00 | 0.00 | 0.00 | 34 | 1017.3 |
| 20260830172348 | 88 | 255 | 1.7 | 5.2 | 0.00 | 0.00 | 0.00 | 33 | 1017.2 |
| 20260830171347 | 87 | 159 | 0.9 | 8.7 | 0.00 | 0.00 | 0.00 | 32 | 1017.3 |
| 20260830170344 | 88 | 52 | 4.3 | 8.7 | 0.00 | 0.00 | 0.00 | 32 | 1017.2 |
| 20260830165400 | 88 | 257 | 1.7 | 7.0 | 0.00 | 0.00 | 0.00 | 33 | 1017.2 |
| 20260830164357 | 88 | 203 | 2.6 | 8.7 | 0.00 | 0.00 | 0.00 | 32 | 1017.1 |
| 20260830163356 | 87 | 218 | 6.1 | 14.8 | 0.00 | 0.00 | 0.00 | 33 | 1017.1 |
| 20260830162351 | 87 | 221 | 8.7 | 13.9 | 0.00 | 0.00 | 0.00 | 34 | 1017.1 |
| 20260830161346 | 88 | 195 | 6.1 | 11.3 | 0.00 | 0.00 | 0.00 | 35 | 1017.1 |